SCP
0 0 0 0 0 0 0 0 0 0 0 0 0 0 0 0 0 0 0 0 0 0 0 0 0 0 0 0 0 0 0 0 1 1 0 0 0 0
0 0 0 0 0 0 0 0 0 0 0 0 0 0 0 0 0 0 0 0 0 0 0 0 0 0 0 0 0 0 0 0 0 1 1 1 0 0
0 0 0 0 0 0 0 0 0 0 0 0 0 0 0 0 0 0 0 0 0 0 0 0 0 0 0 0 0 0 0 0 0 0 0 0 0 0
0 0 0 0 0 0 0 0 0 0 0 0 0 0 0 0 0 0 0 0 0 0 0 0 0 0 0 0 0 0 0 0 0 0 0 0 0 0
0 0 0 0 0 0 0 0 0 0 0 0 0 0 0 0 0 0 0 0 0 0 -0 -0 0 0 0 0 0 0 0 0 0 0 0 0 0 0
0 0 0 0 0 0 0 0 0 0 0 0 0 0 0 0 0 0 0 0 0 0 0 -0 0 0 0 0 0 0 0 0 0 0 0 0 0 0
0 0 0 0 0 0 0 0 0 0 0 0 0 0 0 0 0 0 0 0 0 0 0 0 0 0 0 0 0 0 0 0 0 0 0 0 0 0
0 0 0 0 0 0 0 0 0 0 0 0 0 0 0 0 0 0 0 0 0 0 0 0 0 0 0 0 0 0 0 0 0 0 0 0 0 0
0 0 0 0 0 0 0 0 0 0 0 0 0 0 0 0 0 0 0 0 0 0 0 0 0 0 0 0 0 0 0 0 0 0 0 0 0 0
0 0 0 0 0 0 0 0 0 0 0 0 0 0 0 0 0 0 0 0 0 0 0 0 0 0 0 0 0 0 0 0 0 0 0 0 0 0
0 0 0 0 0 0 0 0 0 0 0 0 0 0 0 0 0 0 0 0 0 0 0 0 0 0 0 0 0 0 0 0 0 0 0 0 0 0
0 0 0 0 0 0 0 0 0 0 0 0 0 0 0 0 0 0 0 0 0 0 0 0 0 0 0 0 0 0 0 0 0 0 0 0 0 0
0 0 0 0 0 0 0 0 0 0 0 0 0 0 0 0 0 0 0 0 0 0 0 0 0 0 0 0 0 0 0 0 0 0 0 0 0 0
0 0 0 0 0 0 0 0 0 0 0 0 0 0 0 0 0 0 0 0 0 0 0 0 0 0 0 0 0 0 0 0 0 0 0 0 0 0
0 0 0 0 0 0 0 0 -0 -0 0 0 0 0 0 0 0 0 0 0 0 0 0 0 0 0 0 0 0 0 0 0 0 0 0 0 0 0
0 0 0 0 0 0 0 0 0 0 0 0 0 0 0 0 0 0 0 0 0 0 0 0 0 0 0 0 0 0 0 0 0 0 0 0 0 0
0 0 0 0 0 0 0 0 0 0 0 0 0 0 0 0 0 0 0 0 0 0 0 0 0 0 0 0 0 0 0 0 0 0 0 0 0 0
0 0 0 0 0 0 0 0 0 0 0 0 0 0 0 0 0 0 0 0 0 0 0 0 0 0 0 0 0 0 0 0 0 0 0 0 0 0
0 0 0 0 0 0 0 0 0 0 0 0 0 0 0 0 0 0 0 0 0 0 0 0 0 0 0 0 0 0 0 0 0 0 0 0 0 0
0 0 0 0 0 0 0 0 0 0 0 0 0 0 0 0 0 0 0 0 0 0 0 0 0 0 0 0 0 0 0 0 0 0 0 0 0 0
0 0 0 0 0 0 0 0 0 0 0 0 0 0 0 0 0 0 0 0 0 0 0 0 0 0 0 0 0 0 0 0 0 0 0 0 0 0
0 0 0 0 0 0 0 0 0 0 0 0 0 0 0 0 0 0 0 0 0 0 0 0 0 0 0 0 0 0 0 0 0 0 0 0 0 0
0 0 0 0 0 0 0 0 0 0 0 0 0 0 0 0 0 0 0 0 0 0 0 0 0 0 0 0 0 0 0 0 0 0 0 0 0 -0
Wind_Speed_500mb
21 22 23 20 21 27 29 22 17 11 10 6 7 9 14 13 11 11 15 21 25 28 31 31 30 36 48 51 52 56 56 56 53 52 52 50 48 45
25 20 16 12 10 17 13 15 17 11 7 7 3 6 13 18 22 24 28 31 33 36 42 45 42 38 40 49 52 57 58 59 59 55 55 51 50 49
15 17 15 12 11 14 13 12 12 14 18 15 14 16 16 18 22 29 31 36 31 36 39 41 46 48 45 45 51 55 58 61 64 64 59 58 57 55
10 12 14 19 24 20 20 21 26 31 23 24 28 27 27 32 37 40 40 32 33 45 49 45 46 48 54 49 46 50 56 64 65 64 65 62 60 60
14 16 14 15 15 13 22 26 28 29 30 32 27 31 40 43 48 50 51 50 51 48 49 45 43 47 51 54 50 47 50 59 66 64 64 63 63 63
16 16 17 17 19 19 20 16 14 19 26 32 33 32 30 28 39 40 45 43 40 40 41 44 42 43 47 51 52 50 49 53 60 67 67 67 67 66
18 14 16 17 18 22 22 25 26 28 31 34 35 38 30 28 31 35 38 39 44 42 36 26 27 29 36 48 52 49 52 55 59 64 67 71 73 74
11 14 16 16 18 20 23 27 31 36 39 38 32 36 47 47 39 39 38 40 43 27 30 31 32 40 41 41 54 58 53 57 59 61 63 64 68 74
18 16 12 19 24 29 32 35 36 39 44 48 54 51 56 56 58 60 49 46 48 43 45 53 40 44 42 42 53 64 66 61 60 61 60 59 60 65
21 20 22 26 32 39 45 47 47 48 48 49 51 57 54 55 54 55 56 56 57 53 45 57 42 46 42 44 51 54 66 75 68 64 64 61 56 56
24 27 31 37 45 49 52 52 53 50 43 51 48 49 53 52 44 45 43 41 47 43 37 45 40 46 44 47 42 40 49 62 77 76 70 68 64 57
30 33 37 41 45 49 54 58 53 48 46 48 45 40 39 40 45 42 37 42 42 42 29 33 30 25 26 23 23 24 24 42 57 73 81 79 73 73
25 27 33 44 47 51 54 58 51 55 55 44 40 37 37 36 34 33 34 35 39 44 35 32 35 32 36 40 35 30 29 30 34 49 64 74 76 80
34 33 45 50 54 59 54 49 52 53 43 40 41 38 37 36 34 33 33 34 36 43 39 40 42 35 37 43 43 37 34 33 37 43 49 58 64 71
35 42 48 55 60 60 49 52 52 37 38 38 38 38 36 37 40 37 33 38 40 45 41 41 47 45 43 45 45 42 39 36 35 35 41 43 48 45
36 43 52 54 52 48 43 42 38 36 36 39 39 41 44 41 35 36 37 35 36 35 38 38 51 54 48 47 47 48 39 34 23 29 34 36 39 44
45 49 46 49 45 42 41 43 41 42 45 42 46 48 45 44 40 35 37 39 41 38 38 32 38 42 50 53 50 46 44 44 44 44 41 44 43 43
49 48 50 50 46 44 47 49 46 46 44 44 44 40 42 43 45 42 42 45 48 40 37 36 30 31 37 44 52 51 48 46 44 43 43 46 48 43
58 51 53 52 49 48 50 52 55 52 49 44 45 40 41 40 42 46 48 51 53 52 41 35 33 31 35 39 33 38 40 39 39 42 41 43 49 47
65 52 56 56 55 57 58 60 63 58 52 49 50 51 47 46 47 47 56 60 61 54 49 42 37 38 40 40 37 35 36 43 43 47 46 44 45 51
50 51 54 57 57 58 62 67 65 61 59 57 53 50 46 44 51 51 58 63 52 56 49 44 40 36 38 34 40 44 40 42 44 52 52 47 45 42
51 52 56 59 64 69 73 72 68 64 60 56 53 50 50 52 54 53 54 39 35 43 43 43 44 35 31 35 39 44 40 36 45 54 54 59 46 44
54 57 62 69 68 67 73 85 87 88 84 76 70 70 57 59 53 48 44 33 35 37 38 39 38 33 32 33 39 41 43 46 35 32 38 43 58 56
Wind_Direction_500mb
268 280 307 307 270 261 249 233 223 211 177 175 176 172 200 212 224 237 255 264 271 277 283 287 289 272 256 249 245 245 240 239 240 241 240 240 239 241
289 297 303 310 261 234 219 217 199 173 169 148 109 247 270 275 275 275 277 279 277 279 280 277 276 279 264 258 255 245 240 238 238 238 240 240 243 245
317 296 282 278 247 222 222 227 236 271 270 264 263 271 273 265 266 277 285 288 287 290 291 287 274 264 267 259 254 253 240 238 239 240 240 240 243 244
341 347 326 283 263 257 250 249 263 268 255 261 265 264 267 274 281 279 281 282 283 295 298 291 280 268 255 258 254 252 250 243 241 233 237 242 245 248
1 346 346 337 325 256 240 246 248 247 253 263 265 277 278 277 274 279 284 286 291 293 300 293 276 268 262 253 254 249 251 245 237 234 235 240 247 249
338 328 322 322 324 321 318 309 291 269 259 260 273 282 282 277 282 285 285 285 290 289 288 291 279 268 263 253 251 250 244 246 243 243 244 246 249 251
304 312 312 311 307 307 313 313 318 317 313 305 299 292 284 284 286 283 287 290 288 290 287 274 277 272 264 253 244 244 244 237 240 246 247 249 250 250
1 352 343 334 326 322 320 319 318 317 315 314 309 299 298 299 293 291 288 290 290 284 281 277 276 276 268 261 250 243 240 240 238 237 245 250 252 250
358 350 351 336 332 329 324 320 315 311 305 304 301 297 296 296 292 291 287 280 278 275 279 279 277 274 273 267 256 247 244 240 239 241 240 244 248 249
354 351 342 336 332 326 322 317 312 309 307 303 296 294 291 289 285 284 285 283 282 282 276 274 276 273 274 270 265 253 246 244 242 239 240 239 242 244
338 333 329 327 326 325 324 324 322 319 315 312 304 293 290 290 285 281 281 279 278 276 269 269 274 278 277 273 272 260 248 243 240 241 239 238 239 242
317 316 316 318 320 322 321 320 315 312 310 312 309 301 292 286 288 279 276 273 273 281 280 252 272 281 287 272 268 257 251 247 238 237 239 241 239 240
309 313 315 319 320 320 319 318 313 308 304 304 305 304 298 288 282 275 272 267 263 258 255 268 271 270 264 270 276 268 268 266 256 244 239 238 239 242
314 314 319 320 320 322 318 320 320 313 302 294 300 301 300 297 284 274 271 274 266 263 261 256 263 261 264 270 272 275 274 270 266 260 250 244 239 238
316 316 320 318 319 322 316 319 323 312 298 287 291 295 294 293 292 287 273 274 277 273 270 262 263 266 263 267 272 270 278 276 272 263 258 254 248 244
316 316 320 320 320 322 322 320 317 312 300 297 296 298 301 298 284 283 277 273 271 267 272 274 263 260 259 263 267 269 265 264 269 263 262 261 252 245
317 316 318 318 315 315 313 311 306 304 317 311 305 299 300 301 293 284 278 272 265 266 271 265 266 264 254 256 262 262 268 267 268 270 270 265 259 248
309 307 312 313 308 308 310 313 309 301 298 305 311 303 299 300 298 293 285 277 269 265 266 269 262 262 262 258 256 258 261 263 267 269 266 262 260 249
306 305 308 308 301 300 304 308 307 302 294 290 292 304 303 299 294 290 293 290 280 273 264 261 259 256 263 260 255 256 260 257 262 268 267 257 256 251
306 299 300 304 299 296 297 301 302 299 292 288 284 287 287 284 293 291 288 288 273 272 270 266 254 260 261 261 262 248 252 260 265 269 269 265 258 250
309 302 301 302 299 297 296 297 296 293 287 284 283 278 277 280 285 287 295 288 267 263 265 263 258 263 261 266 267 266 265 268 270 266 268 260 254 248
310 307 305 304 301 300 298 297 293 289 286 282 279 275 272 277 287 292 304 293 251 262 265 267 267 263 262 260 259 268 273 272 275 267 266 247 235 240
309 309 308 307 306 303 300 295 291 286 280 277 274 278 276 279 282 287 296 265 253 265 267 269 271 270 265 266 265 274 281 292 289 274 263 263 247 250
Wind_Speed_850mb
21 22 23 20 21 27 29 22 17 11 10 6 7 9 14 13 11 11 15 21 25 28 31 31 30 36 48 51 52 56 56 56 53 52 52 50 48 45
25 20 16 12 10 17 13 15 17 11 7 7 3 6 13 18 22 24 28 31 33 36 42 45 42 38 40 49 52 57 58 59 59 55 55 51 50 49
15 17 15 12 11 14 13 12 12 14 18 15 14 16 16 18 22 29 31 36 31 36 39 41 46 48 45 45 51 55 58 61 64 64 59 58 57 55
10 12 14 19 24 20 20 21 26 31 23 24 28 27 27 32 37 40 40 32 33 45 49 45 46 48 54 49 46 50 56 64 65 64 65 62 60 60
14 16 14 15 15 13 22 26 28 29 30 32 27 31 40 43 48 50 51 50 51 48 49 45 43 47 51 54 50 47 50 59 66 64 64 63 63 63
16 16 17 17 19 19 20 16 14 19 26 32 33 32 30 28 39 40 45 43 40 40 41 44 42 43 47 51 52 50 49 53 60 67 67 67 67 66
18 14 16 17 18 22 22 25 26 28 31 34 35 38 30 28 31 35 38 39 44 42 36 26 27 29 36 48 52 49 52 55 59 64 67 71 73 74
11 14 16 16 18 20 23 27 31 36 39 38 32 36 47 47 39 39 38 40 43 27 30 31 32 40 41 41 54 58 53 57 59 61 63 64 68 74
18 16 12 19 24 29 32 35 36 39 44 48 54 51 56 56 58 60 49 46 48 43 45 53 40 44 42 42 53 64 66 61 60 61 60 59 60 65
21 20 22 26 32 39 45 47 47 48 48 49 51 57 54 55 54 55 56 56 57 53 45 57 42 46 42 44 51 54 66 75 68 64 64 61 56 56
24 27 31 37 45 49 52 52 53 50 43 51 48 49 53 52 44 45 43 41 47 43 37 45 40 46 44 47 42 40 49 62 77 76 70 68 64 57
30 33 37 41 45 49 54 58 53 48 46 48 45 40 39 40 45 42 37 42 42 42 29 33 30 25 26 23 23 24 24 42 57 73 81 79 73 73
25 27 33 44 47 51 54 58 51 55 55 44 40 37 37 36 34 33 34 35 39 44 35 32 35 32 36 40 35 30 29 30 34 49 64 74 76 80
34 33 45 50 54 59 54 49 52 53 43 40 41 38 37 36 34 33 33 34 36 43 39 40 42 35 37 43 43 37 34 33 37 43 49 58 64 71
35 42 48 55 60 60 49 52 52 37 38 38 38 38 36 37 40 37 33 38 40 45 41 41 47 45 43 45 45 42 39 36 35 35 41 43 48 45
36 43 52 54 52 48 43 42 38 36 36 39 39 41 44 41 35 36 37 35 36 35 38 38 51 54 48 47 47 48 39 34 23 29 34 36 39 44
45 49 46 49 45 42 41 43 41 42 45 42 46 48 45 44 40 35 37 39 41 38 38 32 38 42 50 53 50 46 44 44 44 44 41 44 43 43
49 48 50 50 46 44 47 49 46 46 44 44 44 40 42 43 45 42 42 45 48 40 37 36 30 31 37 44 52 51 48 46 44 43 43 46 48 43
58 51 53 52 49 48 50 52 55 52 49 44 45 40 41 40 42 46 48 51 53 52 41 35 33 31 35 39 33 38 40 39 39 42 41 43 49 47
65 52 56 56 55 57 58 60 63 58 52 49 50 51 47 46 47 47 56 60 61 54 49 42 37 38 40 40 37 35 36 43 43 47 46 44 45 51
50 51 54 57 57 58 62 67 65 61 59 57 53 50 46 44 51 51 58 63 52 56 49 44 40 36 38 34 40 44 40 42 44 52 52 47 45 42
51 52 56 59 64 69 73 72 68 64 60 56 53 50 50 52 54 53 54 39 35 43 43 43 44 35 31 35 39 44 40 36 45 54 54 59 46 44
54 57 62 69 68 67 73 85 87 88 84 76 70 70 57 59 53 48 44 33 35 37 38 39 38 33 32 33 39 41 43 46 35 32 38 43 58 56
Wind_Direction_850mb
268 280 307 307 270 261 249 233 223 211 177 175 176 172 200 212 224 237 255 264 271 277 283 287 289 272 256 249 245 245 240 239 240 241 240 240 239 241
289 297 303 310 261 234 219 217 199 173 169 148 109 247 270 275 275 275 277 279 277 279 280 277 276 279 264 258 255 245 240 238 238 238 240 240 243 245
317 296 282 278 247 222 222 227 236 271 270 264 263 271 273 265 266 277 285 288 287 290 291 287 274 264 267 259 254 253 240 238 239 240 240 240 243 244
341 347 326 283 263 257 250 249 263 268 255 261 265 264 267 274 281 279 281 282 283 295 298 291 280 268 255 258 254 252 250 243 241 233 237 242 245 248
1 346 346 337 325 256 240 246 248 247 253 263 265 277 278 277 274 279 284 286 291 293 300 293 276 268 262 253 254 249 251 245 237 234 235 240 247 249
338 328 322 322 324 321 318 309 291 269 259 260 273 282 282 277 282 285 285 285 290 289 288 291 279 268 263 253 251 250 244 246 243 243 244 246 249 251
304 312 312 311 307 307 313 313 318 317 313 305 299 292 284 284 286 283 287 290 288 290 287 274 277 272 264 253 244 244 244 237 240 246 247 249 250 250
1 352 343 334 326 322 320 319 318 317 315 314 309 299 298 299 293 291 288 290 290 284 281 277 276 276 268 261 250 243 240 240 238 237 245 250 252 250
358 350 351 336 332 329 324 320 315 311 305 304 301 297 296 296 292 291 287 280 278 275 279 279 277 274 273 267 256 247 244 240 239 241 240 244 248 249
354 351 342 336 332 326 322 317 312 309 307 303 296 294 291 289 285 284 285 283 282 282 276 274 276 273 274 270 265 253 246 244 242 239 240 239 242 244
338 333 329 327 326 325 324 324 322 319 315 312 304 293 290 290 285 281 281 279 278 276 269 269 274 278 277 273 272 260 248 243 240 241 239 238 239 242
317 316 316 318 320 322 321 320 315 312 310 312 309 301 292 286 288 279 276 273 273 281 280 252 272 281 287 272 268 257 251 247 238 237 239 241 239 240
309 313 315 319 320 320 319 318 313 308 304 304 305 304 298 288 282 275 272 267 263 258 255 268 271 270 264 270 276 268 268 266 256 244 239 238 239 242
314 314 319 320 320 322 318 320 320 313 302 294 300 301 300 297 284 274 271 274 266 263 261 256 263 261 264 270 272 275 274 270 266 260 250 244 239 238
316 316 320 318 319 322 316 319 323 312 298 287 291 295 294 293 292 287 273 274 277 273 270 262 263 266 263 267 272 270 278 276 272 263 258 254 248 244
316 316 320 320 320 322 322 320 317 312 300 297 296 298 301 298 284 283 277 273 271 267 272 274 263 260 259 263 267 269 265 264 269 263 262 261 252 245
317 316 318 318 315 315 313 311 306 304 317 311 305 299 300 301 293 284 278 272 265 266 271 265 266 264 254 256 262 262 268 267 268 270 270 265 259 248
309 307 312 313 308 308 310 313 309 301 298 305 311 303 299 300 298 293 285 277 269 265 266 269 262 262 262 258 256 258 261 263 267 269 266 262 260 249
306 305 308 308 301 300 304 308 307 302 294 290 292 304 303 299 294 290 293 290 280 273 264 261 259 256 263 260 255 256 260 257 262 268 267 257 256 251
306 299 300 304 299 296 297 301 302 299 292 288 284 287 287 284 293 291 288 288 273 272 270 266 254 260 261 261 262 248 252 260 265 269 269 265 258 250
309 302 301 302 299 297 296 297 296 293 287 284 283 278 277 280 285 287 295 288 267 263 265 263 258 263 261 266 267 266 265 268 270 266 268 260 254 248
310 307 305 304 301 300 298 297 293 289 286 282 279 275 272 277 287 292 304 293 251 262 265 267 267 263 262 260 259 268 273 272 275 267 266 247 235 240
309 309 308 307 306 303 300 295 291 286 280 277 274 278 276 279 282 287 296 265 253 265 267 269 271 270 265 266 265 274 281 292 289 274 263 263 247 250